User: anonymous   Login
Location: *
(44.1392°N, 4.8079°E)
Time: 15:06:53
(UTC+00:00)
Language:

Meteor 2-21 Rocket - Orbit

View from above orbital plane
View from above orbital plane
View from above satellite
View from above satellite

Ground track
Ground track

The orbit data is extracted from the following two-line orbital elements,

1 22784U 93055C   21264.70978008  .00000004  00000-0 -99999-5 0  9994
2 22784  82.5494 231.4234 0022833  35.0293 138.6369 13.83443784416581
Epoch (UTC): 21 September 2021 17:02:04
Eccentricity: 0.0022833
inclination: 82.5494°
perigee height: 935 km
apogee height: 968 km
right ascension of ascending node: 231.4234°
argument of perigee: 35.0293°
revolutions per day: 13.83443784
mean anomaly at epoch: 138.6369°
orbit number at epoch: 41658

The dashed part of the orbit path shows where the satellite is in the earth's shadow,  

DLR